Date,TemperatureHighF,TemperatureAvgF,TemperatureLowF,DewpointHighF,DewpointAvgF,DewpointLowF,HumidityHigh,HumidityAvg,HumidityLow,PressureMaxIn,PressureMinIn,WindSpeedMaxMPH,WindSpeedAvgMPH,GustSpeedMaxMPH,PrecipitationSumIn
2013-1-1,34.5,29.6,17.8,26.9,19.2,6.6,80,65,54,29.92,29.69,7,2,17,0.00
2013-1-2,27.4,17.9,9.4,17.6,9.1,0.0,81,68,60,30.10,29.89,6,2,15,0.00
2013-1-3,22.5,11.6,3.8,9.3,1.5,-4.7,84,64,43,30.12,30.00,3,1,12,0.00
2013-1-4,36.2,26.0,12.5,26.2,20.0,9.6,92,79,64,29.98,29.80,5,0,17,0.01
2013-1-5,39.2,30.3,19.5,26.6,22.0,17.1,90,72,48,30.26,29.83,6,1,14,0.01
2013-1-6,40.2,30.0,20.6,29.7,25.5,18.4,93,84,65,30.22,29.93,3,0,12,0.01
2013-1-7,35.6,27.6,18.2,30.3,22.0,15.8,97,81,59,30.39,29.95,7,1,17,0.00
2013-1-8,43.6,31.2,19.7,30.5,26.0,18.3,96,82,59,30.36,30.25,3,0,20,0.00
2013-1-9,41.4,32.9,20.1,35.5,28.3,18.9,97,84,66,30.40,29.99,5,1,14,0.00
2013-1-10,44.2,39.2,27.9,30.7,27.1,24.2,87,62,52,30.53,30.02,9,3,21,0.00
2013-1-11,39.8,32.0,22.5,35.5,28.6,20.9,97,88,73,30.52,30.23,3,0,8,0.09
2013-1-12,42.6,38.7,35.7,42.3,38.3,35.3,100,99,97,30.23,30.13,1,0,7,0.01
2013-1-13,50.4,44.6,37.9,49.3,44.4,37.7,100,99,96,30.15,29.98,5,1,12,0.01
2013-1-14,59.0,50.1,40.7,52.7,44.1,29.4,98,81,56,30.23,29.85,8,2,18,0.00
2013-1-15,40.5,35.5,29.7,29.6,27.8,26.1,89,74,63,30.32,30.23,5,0,8,0.00
2013-1-16,32.4,31.1,28.9,31.6,29.6,25.3,98,94,78,30.24,29.83,1,0,5,0.14
2013-1-17,39.8,32.1,26.4,34.1,27.4,15.1,99,84,58,30.09,29.83,5,1,13,0.01
2013-1-18,27.6,19.8,15.3,14.3,4.5,0.3,67,51,40,30.44,30.06,8,3,17,0.01
2013-1-19,45.8,34.8,21.8,32.4,24.0,10.0,83,65,49,30.37,29.90,8,2,23,0.00
2013-1-20,50.8,39.5,28.2,34.1,27.7,13.9,81,64,44,29.90,29.53,8,3,24,0.00
2013-1-21,27.5,23.9,18.9,20.2,12.3,6.4,91,62,48,30.09,29.83,7,1,18,0.00
2013-1-22,23.3,19.1,11.1,19.7,10.4,2.5,94,70,48,30.07,29.75,8,1,16,0.00
2013-1-23,13.9,9.6,4.5,1.7,-4.9,-8.7,68,52,39,30.13,30.05,8,2,16,0.00
2013-1-24,17.6,9.3,1.2,-3.2,-6.4,-9.5,67,49,37,30.17,30.05,9,3,21,0.00
2013-1-25,22.9,15.1,6.7,8.8,-2.6,-7.0,67,45,32,30.28,30.06,6,2,17,0.00
2013-1-26,21.8,16.1,10.6,13.2,4.3,-4.3,92,62,37,30.20,30.00,9,3,20,0.00
2013-1-27,27.9,19.2,11.9,5.7,3.6,1.1,70,52,35,30.45,30.21,9,2,22,0.00
2013-1-28,30.2,23.3,16.1,25.0,13.7,3.7,95,69,40,30.43,30.02,2,0,9,0.00
2013-1-29,34.6,29.3,24.3,30.8,27.4,22.8,96,92,84,30.18,30.02,2,0,5,0.11
2013-1-30,59.4,47.2,31.8,57.1,46.3,31.0,100,97,90,30.15,29.49,10,3,22,0.15
2013-1-31,59.8,46.3,29.2,58.4,39.1,19.1,98,77,48,29.57,28.96,16,6,39,0.18
2013-2-1,31.4,27.4,21.8,19.9,12.3,7.2,70,53,44,30.05,29.58,7,2,21,0.00
2013-2-2,28.8,23.3,15.3,13.7,9.6,6.5,72,56,46,30.23,30.04,7,1,14,0.00
2013-2-3,25.6,23.8,20.3,22.3,19.9,14.4,92,85,63,30.05,29.72,5,1,9,0.00
2013-2-4,28.2,22.7,16.3,19.9,12.8,7.9,92,67,49,29.91,29.70,8,2,16,0.00
2013-2-5,28.5,23.6,18.4,22.7,14.0,7.9,92,67,54,30.02,29.93,2,0,9,0.00
2013-2-6,36.4,28.3,21.4,26.5,20.4,8.9,95,74,49,30.27,29.92,6,1,14,0.02
2013-2-7,26.4,21.0,12.6,12.5,5.6,3.1,77,52,38,30.52,30.29,6,1,15,0.00
2013-2-8,32.5,27.4,16.6,30.7,24.7,13.6,98,90,65,30.48,29.64,13,4,31,0.01
2013-2-9,19.7,16.9,12.9,18.5,15.3,10.5,95,93,90,30.16,29.58,14,7,29,0.00
2013-2-10,31.1,17.4,2.6,26.0,14.4,-0.1,99,88,76,30.39,30.18,6,1,14,0.00
2013-2-11,38.4,26.1,8.9,38.1,25.1,6.8,99,96,90,30.34,29.61,2,0,10,0.00
2013-2-12,42.5,36.6,31.8,33.8,30.7,28.1,100,80,61,29.86,29.60,6,2,17,0.13
2013-2-13,41.8,32.7,23.8,28.3,25.9,21.3,92,77,58,29.86,29.72,5,0,13,0.04
2013-2-14,40.7,32.8,25.5,27.9,24.9,21.3,92,74,52,29.98,29.72,3,1,12,0.01
2013-2-15,48.8,35.8,22.6,36.2,30.3,20.5,97,82,60,29.99,29.89,7,2,18,0.02
2013-2-16,38.0,33.2,26.7,32.9,27.6,20.6,97,81,62,29.94,29.73,6,1,12,0.03
2013-2-17,29.0,20.5,15.9,19.4,13.4,3.7,93,75,56,29.69,29.36,12,6,26,0.01
2013-2-18,29.2,20.8,13.5,6.2,4.1,2.6,62,49,33,30.14,29.66,10,4,27,0.00
2013-2-19,45.0,33.8,18.4,39.7,25.1,6.2,98,71,52,30.15,29.58,7,1,13,0.37
2013-2-20,38.1,31.5,25.2,37.9,23.1,14.4,99,72,51,29.76,29.53,6,2,20,0.00
2013-2-21,30.3,25.7,22.7,16.7,15.0,12.3,74,64,54,30.15,29.75,8,3,20,0.00
2013-2-22,38.3,30.0,20.1,26.1,22.0,16.6,88,73,56,30.39,30.20,7,2,16,0.00
2013-2-23,37.7,32.8,27.7,32.1,29.5,24.8,97,88,79,30.34,29.95,6,1,15,0.02
2013-2-24,36.1,33.3,29.9,35.8,32.7,29.4,99,98,96,29.92,29.69,7,2,19,0.62
2013-2-25,39.0,32.9,28.6,32.3,30.3,27.4,98,91,74,30.23,29.90,3,0,8,0.02
2013-2-26,40.9,33.0,25.5,36.0,29.5,24.5,98,87,66,30.34,30.18,8,1,12,0.00
2013-2-27,39.8,37.9,35.4,39.3,36.8,31.3,99,96,84,30.17,29.55,10,4,27,1.42
2013-2-28,44.7,36.9,32.7,38.8,34.9,32.1,99,93,77,29.64,29.53,3,0,9,0.01
2013-3-1,39.2,35.8,31.9,34.3,31.6,29.3,97,85,73,29.68,29.53,5,1,13,0.00
2013-3-2,41.3,36.1,28.3,31.9,29.1,26.0,91,76,66,29.67,29.61,5,1,12,0.00
2013-3-3,39.4,34.5,30.8,33.3,29.5,26.8,90,82,76,29.64,29.56,5,1,15,0.00
2013-3-4,37.4,33.0,29.6,29.4,25.7,23.2,93,75,62,29.73,29.58,9,4,22,0.00
2013-3-5,43.9,35.0,29.6,34.6,28.5,23.3,95,78,64,30.07,29.75,5,2,16,0.00
2013-3-6,39.5,35.9,32.2,35.3,33.2,30.4,97,90,77,30.12,30.05,10,5,27,0.12
2013-3-7,35.2,31.7,30.0,32.0,29.8,28.0,100,93,80,30.09,30.00,13,6,31,0.20
2013-3-8,39.7,32.4,28.4,31.4,28.6,24.8,98,87,62,30.15,29.94,10,4,23,0.02
2013-3-9,45.3,34.7,23.8,31.8,26.4,21.9,95,72,58,30.35,30.15,7,2,18,0.01
2013-3-10,43.2,31.4,18.3,34.0,27.8,17.1,98,87,68,30.42,30.32,7,1,10,0.00
2013-3-11,51.2,41.2,33.9,40.3,36.1,32.0,94,83,59,30.33,30.16,6,2,13,0.00
2013-3-12,53.7,47.1,40.0,52.3,46.0,39.2,99,96,88,30.16,29.73,7,3,22,0.20
2013-3-13,50.8,43.0,31.0,50.4,34.0,24.3,99,72,44,29.78,29.70,7,1,14,0.01
2013-3-14,32.6,30.8,28.7,26.1,23.9,20.3,85,76,64,29.77,29.74,3,0,13,0.00
2013-3-15,39.5,28.4,18.9,28.2,15.4,7.3,83,59,35,29.86,29.62,8,2,20,0.00
2013-3-16,38.1,32.3,26.4,27.0,18.2,13.7,81,57,38,29.87,29.67,3,1,17,0.00
2013-3-17,35.6,28.3,19.5,18.8,13.9,8.1,88,57,35,30.31,29.88,7,3,22,0.00
2013-3-18,38.8,27.4,15.4,26.0,13.6,4.5,89,57,37,30.46,30.26,5,1,13,0.00
2013-3-19,34.1,31.5,26.9,33.3,30.7,25.9,98,97,93,30.23,29.61,9,4,20,0.30
2013-3-20,38.0,29.8,24.2,25.3,23.7,21.8,96,79,59,29.81,29.70,6,1,16,0.22
2013-3-21,38.4,28.9,20.3,28.9,22.9,18.3,96,80,49,29.81,29.62,3,0,8,0.22
2013-3-22,38.3,32.1,26.2,26.2,22.5,20.3,96,69,49,29.73,29.60,6,1,16,0.08
2013-3-23,42.5,33.9,25.6,24.7,22.0,20.0,83,63,45,29.76,29.62,9,3,20,0.12
2013-3-24,46.7,36.2,27.0,29.4,25.8,22.0,87,67,48,29.80,29.72,7,2,16,0.00
2013-3-25,42.8,34.8,26.5,35.7,30.7,25.3,96,85,73,29.77,29.54,8,2,20,0.00
2013-3-26,49.5,39.6,32.6,30.9,27.2,24.0,86,63,40,29.77,29.54,7,2,20,0.00
2013-3-27,53.4,40.1,25.7,34.0,28.1,22.8,92,65,41,29.86,29.73,9,3,27,0.00
2013-3-28,46.7,40.8,35.3,36.7,34.9,32.0,96,80,58,30.01,29.87,3,1,13,0.02
2013-3-29,55.4,42.6,28.3,40.1,34.0,27.3,98,74,45,30.04,29.96,7,1,14,0.00
2013-3-30,56.6,44.2,31.8,35.1,30.3,22.4,91,63,27,30.09,30.00,6,1,15,0.00
2013-3-31,59.9,43.8,25.0,39.9,31.1,23.8,97,66,34,30.12,29.79,9,2,20,0.01
2013-4-1,60.7,46.6,34.8,46.0,38.3,16.5,99,75,42,29.77,29.50,9,2,24,0.06
2013-4-2,40.4,33.9,27.4,20.0,16.7,13.5,62,50,37,29.93,29.79,8,2,20,0.00
2013-4-3,46.4,36.3,28.6,18.4,17.1,14.6,61,47,30,30.13,29.92,6,2,20,0.00
2013-4-4,57.6,41.2,25.9,26.8,21.1,16.9,75,47,26,30.29,30.04,6,1,19,0.00
2013-4-5,61.3,46.0,36.1,33.5,29.9,26.2,78,56,30,30.04,29.62,9,2,20,0.00
2013-4-6,45.9,36.3,27.8,26.8,15.9,11.2,70,45,25,30.34,29.88,10,3,25,0.00
2013-4-7,53.5,40.2,24.2,40.4,30.7,21.5,94,71,39,30.33,30.00,14,4,26,0.00
2013-4-8,66.2,50.8,39.9,44.2,41.0,38.8,98,72,37,30.10,29.94,7,2,15,0.00
2013-4-9,70.7,53.4,44.8,52.7,45.4,39.8,97,77,44,30.09,29.86,7,2,16,0.04
2013-4-10,60.6,50.1,44.6,51.1,46.2,42.4,98,87,68,30.01,29.88,5,1,16,0.20
2013-4-11,53.5,46.4,40.2,46.4,41.2,31.0,99,83,57,30.15,29.84,5,1,12,0.04
2013-4-12,40.3,37.9,35.9,39.1,35.7,31.8,98,92,77,30.18,29.80,7,3,20,0.47
2013-4-13,52.6,41.0,34.5,41.6,37.6,33.7,98,88,65,29.93,29.78,6,2,20,0.04
2013-4-14,53.3,44.4,35.1,40.8,35.6,30.5,98,74,47,30.20,29.92,5,1,22,0.00
2013-4-15,56.0,42.6,28.3,39.7,35.2,27.0,97,77,54,30.39,30.22,7,2,22,0.00
2013-4-16,65.4,51.1,34.4,51.7,43.2,33.1,98,76,56,30.41,30.06,15,4,25,0.00
2013-4-17,66.0,57.2,45.7,53.5,41.0,33.4,90,58,33,30.32,30.06,7,3,18,0.00
2013-4-18,60.4,49.8,35.7,44.5,37.4,32.6,92,65,42,30.44,30.15,8,4,20,0.00
2013-4-19,75.3,63.5,52.2,64.0,58.8,45.9,99,85,65,30.15,29.67,12,5,24,0.00
2013-4-20,66.3,53.4,45.0,63.6,44.0,28.9,98,73,46,30.18,29.60,10,2,24,0.42
2013-4-21,53.6,41.6,31.2,32.7,27.2,22.6,89,58,33,30.68,30.23,8,2,17,0.00
2013-4-22,51.5,41.0,29.5,38.1,32.3,28.5,97,74,45,30.77,30.61,9,3,20,0.00
2013-4-23,41.4,40.0,35.9,40.8,38.0,31.3,98,93,82,30.60,30.16,7,3,20,0.06
2013-4-24,72.7,54.1,41.1,58.0,47.9,40.6,98,81,57,30.11,29.79,8,4,20,0.02
2013-4-25,64.7,54.5,41.6,52.9,41.2,33.6,96,64,33,30.26,29.83,7,2,20,0.03
2013-4-26,60.8,48.3,34.8,41.4,38.0,33.4,95,71,46,30.44,30.28,8,2,16,0.00
2013-4-27,65.5,51.0,35.1,46.4,39.8,34.1,99,69,43,30.42,30.30,7,2,16,0.00
2013-4-28,66.3,53.4,36.2,46.2,39.6,33.1,98,63,43,30.35,30.23,10,2,20,0.00
2013-4-29,68.4,56.5,43.5,51.8,41.7,28.7,93,61,36,30.27,30.19,7,2,20,0.00
2013-4-30,68.7,54.2,39.3,42.9,34.5,27.6,90,52,27,30.36,30.26,7,2,17,0.00
2013-5-1,67.4,52.4,34.3,46.8,39.6,32.9,98,66,38,30.47,30.38,8,2,15,0.00
2013-5-2,77.4,53.7,38.1,51.4,43.3,37.1,99,72,34,30.49,30.36,8,2,17,0.00
2013-5-3,59.3,48.6,39.5,46.3,42.2,38.3,96,80,62,30.53,30.39,8,2,17,0.00
2013-5-4,59.9,47.2,34.8,47.7,39.6,32.1,99,77,39,30.37,30.31,7,2,20,0.01
2013-5-5,60.2,46.4,31.2,46.0,39.4,30.2,99,79,58,30.34,30.26,6,2,15,0.00
2013-5-6,67.5,49.6,34.2,52.7,44.7,33.2,99,85,57,30.29,30.16,7,1,13,0.00
2013-5-7,76.3,60.1,38.7,61.9,52.7,37.9,100,78,57,30.18,30.10,7,2,17,0.00
2013-5-8,74.1,61.4,49.5,64.6,57.9,48.7,99,89,72,30.21,30.07,9,3,20,0.00
2013-5-9,64.9,58.8,56.3,62.3,58.1,55.7,100,97,88,30.05,29.90,2,0,8,0.54
2013-5-10,79.8,62.9,54.9,64.7,58.3,54.9,100,87,54,29.95,29.89,6,1,13,0.00
2013-5-11,71.7,64.2,59.0,64.2,60.5,56.3,97,88,76,29.91,29.70,8,3,20,0.03
2013-5-12,71.4,61.0,48.6,61.4,54.1,36.1,99,80,52,29.78,29.56,3,1,13,0.15
2013-5-13,60.4,49.3,37.7,39.5,35.5,31.5,91,61,39,30.02,29.82,7,1,16,0.00
2013-5-14,58.0,48.8,37.0,39.2,36.0,33.3,87,63,43,30.05,29.96,6,1,16,0.00
2013-5-15,66.9,50.8,31.5,53.0,41.2,30.2,98,74,42,30.06,29.68,8,3,22,0.00
2013-5-16,81.9,64.6,45.1,53.4,46.9,39.3,99,59,30,29.78,29.62,5,1,23,0.00
2013-5-17,67.2,57.6,46.1,48.9,45.2,41.7,91,65,41,30.21,29.82,6,2,22,0.00
2013-5-18,70.4,56.3,38.6,53.1,46.7,37.6,99,73,40,30.30,30.21,6,1,14,0.00
2013-5-19,70.6,56.6,46.2,57.8,52.1,45.1,99,86,60,30.35,30.24,6,1,13,0.08
2013-5-20,82.0,66.4,55.1,69.7,62.1,54.8,100,87,65,30.21,29.91,3,1,10,0.08
2013-5-21,76.6,58.4,50.5,68.8,56.4,49.8,100,94,75,30.02,29.88,6,2,16,0.01
2013-5-22,64.2,55.0,49.4,60.7,53.7,48.9,100,96,88,30.06,29.90,5,1,16,0.15
2013-5-23,76.8,63.2,52.9,71.6,61.2,52.6,100,94,82,29.93,29.82,8,2,20,0.08
2013-5-24,70.3,62.5,49.9,69.7,62.0,49.8,100,98,92,29.82,29.65,6,1,14,0.94
2013-5-25,51.6,47.7,41.1,51.6,47.5,39.8,100,99,95,29.81,29.70,6,2,15,0.43
2013-5-26,57.6,47.5,39.2,47.6,42.3,38.5,99,83,64,30.08,29.70,5,2,20,0.06
2013-5-27,71.3,55.4,37.4,49.2,43.6,36.4,99,69,34,30.17,30.07,6,1,16,0.00
2013-5-28,72.3,57.2,39.6,54.2,47.2,38.8,99,74,41,30.24,30.16,5,1,13,0.00
2013-5-29,68.5,61.3,52.8,65.2,60.0,51.7,100,96,88,30.18,30.00,3,1,9,0.85
2013-5-30,86.6,73.0,59.7,73.6,67.5,59.7,100,85,58,30.07,29.99,2,0,14,0.05
2013-5-31,93.8,78.0,59.6,74.6,68.2,59.3,100,75,46,30.08,29.92,5,1,13,0.00
2013-6-1,92.8,79.7,63.7,73.9,69.5,62.4,98,73,49,29.96,29.84,6,2,18,0.00
2013-6-2,90.8,78.9,69.4,73.8,69.5,66.2,92,74,50,29.87,29.71,10,4,28,0.00
2013-6-3,75.9,68.9,60.3,69.8,65.0,51.2,99,88,68,29.84,29.74,5,1,12,0.35
2013-6-4,70.4,60.2,48.1,53.3,49.6,44.5,92,69,52,30.08,29.82,6,1,16,0.00
2013-6-5,76.3,61.2,46.5,55.7,51.1,45.2,98,72,47,30.18,30.09,5,1,13,0.00
2013-6-6,74.1,62.9,50.9,58.7,54.2,49.0,96,74,56,30.19,30.11,7,1,14,0.00
2013-6-7,57.4,55.0,53.1,56.7,54.3,52.9,100,97,90,30.11,29.84,6,1,14,0.86
2013-6-8,77.9,62.3,52.5,69.4,59.6,52.5,100,92,73,29.99,29.62,5,2,12,1.24
2013-6-9,81.5,66.3,52.3,65.4,59.2,51.8,100,80,55,30.15,30.00,3,0,12,0.00
2013-6-10,68.5,60.8,52.1,60.9,57.4,51.6,100,89,73,30.21,30.03,5,1,12,0.49
2013-6-11,61.3,57.3,55.0,59.3,56.6,54.7,100,98,90,30.02,29.58,6,1,17,0.75
2013-6-12,69.4,60.7,55.4,60.8,57.9,54.8,100,91,71,29.81,29.56,5,1,20,0.04
2013-6-13,69.2,57.3,49.3,60.8,55.0,48.8,100,93,69,29.81,29.71,2,0,9,0.59
2013-6-14,69.9,58.5,51.4,62.7,56.1,51.1,100,92,68,29.75,29.65,3,1,12,0.72
2013-6-15,78.9,64.1,50.2,58.6,54.1,49.9,100,74,41,29.92,29.77,5,1,12,0.00
2013-6-16,75.8,65.1,50.4,63.0,57.7,49.3,98,79,57,29.93,29.71,6,1,15,0.00
2013-6-17,86.6,68.2,55.5,68.8,62.6,54.7,99,85,48,29.90,29.77,6,1,15,0.78
2013-6-18,74.8,61.6,56.4,65.9,59.8,56.4,100,94,68,29.94,29.88,3,0,15,0.07
2013-6-19,76.1,62.8,52.8,59.6,55.2,49.7,100,79,51,30.14,29.91,6,1,13,0.01
2013-6-20,79.8,64.3,46.6,61.1,55.3,46.1,100,76,46,30.26,30.15,7,1,13,0.00
2013-6-21,85.1,70.7,58.4,69.1,61.9,54.9,94,76,48,30.24,30.18,2,1,10,0.00
2013-6-22,85.0,72.1,58.5,70.6,64.0,57.7,99,77,55,30.21,30.10,3,1,13,0.00
2013-6-23,89.9,76.8,62.7,77.8,68.9,59.9,95,77,62,30.15,29.97,6,2,17,0.01
2013-6-24,93.4,79.0,69.7,78.5,72.9,68.8,100,83,60,30.00,29.85,3,1,17,0.62
2013-6-25,92.0,78.2,67.0,78.5,72.2,67.0,100,84,61,29.91,29.71,5,1,20,0.00
2013-6-26,84.0,73.6,64.7,75.6,70.8,64.1,99,91,73,29.86,29.72,5,0,8,0.15
2013-6-27,73.2,64.8,60.1,68.8,64.0,60.1,100,97,86,29.87,29.78,3,1,9,0.14
2013-6-28,82.7,70.0,58.8,75.9,67.9,58.7,100,94,77,29.77,29.48,7,3,18,0.26
2013-6-29,84.3,75.6,70.5,75.2,70.8,68.5,98,86,69,29.71,29.51,9,3,21,0.00
2013-6-30,87.2,77.0,67.8,76.8,72.0,67.2,99,85,68,29.92,29.72,6,2,15,0.00
2013-7-1,82.5,74.0,70.8,77.8,73.0,70.5,100,97,84,30.07,29.93,5,1,12,1.59
2013-7-2,81.9,71.0,60.5,77.0,69.4,59.8,100,95,79,30.21,30.07,5,2,15,0.01
2013-7-3,87.9,75.2,60.0,78.5,69.9,59.7,100,85,62,30.20,30.12,5,1,13,0.01
2013-7-4,92.8,82.3,72.5,77.5,73.5,70.4,93,76,56,30.19,30.08,5,1,12,0.00
2013-7-5,93.1,84.6,75.2,78.5,74.0,71.4,89,72,54,30.15,30.02,5,1,12,0.00
2013-7-6,90.4,81.6,72.8,76.1,72.3,66.0,91,75,53,30.06,29.96,3,0,10,0.00
2013-7-7,90.0,77.2,65.2,76.2,70.1,63.2,95,80,57,30.01,29.89,3,0,8,0.01
2013-7-8,82.3,75.1,64.8,75.6,70.6,63.0,96,86,68,30.06,29.90,6,1,14,0.11
2013-7-9,73.4,68.3,64.5,67.2,65.0,63.0,96,89,80,30.11,30.05,2,0,7,0.00
2013-7-10,85.6,74.0,66.5,77.0,70.1,63.8,96,88,73,30.07,29.79,6,1,15,0.01
2013-7-11,81.1,75.7,71.1,75.0,72.1,69.2,96,89,75,29.91,29.77,3,0,8,0.03
2013-7-12,77.1,70.3,64.8,68.8,60.7,56.8,96,73,52,30.19,29.93,5,2,17,0.00
2013-7-13,79.8,70.8,63.6,70.3,65.4,60.5,94,83,73,30.30,30.20,5,1,9,0.00
2013-7-14,90.2,77.7,66.9,76.0,71.1,65.3,97,82,55,30.30,30.20,3,1,8,0.00
2013-7-15,90.3,76.2,67.0,76.6,70.6,65.8,97,84,61,30.19,30.09,3,0,9,0.00
2013-7-16,91.2,77.9,66.0,76.2,70.3,64.8,97,80,51,30.16,30.10,5,1,10,0.04
2013-7-17,93.1,81.1,67.3,76.1,71.7,66.1,97,75,50,30.17,29.99,5,1,12,0.00
2013-7-18,90.5,80.8,74.1,77.3,72.0,68.2,92,76,57,30.00,29.94,7,1,12,0.00
2013-7-19,96.5,84.5,70.3,78.0,73.6,68.8,95,72,44,29.93,29.70,5,1,20,0.00
2013-7-20,91.2,82.5,72.2,78.9,75.3,67.8,91,80,60,29.79,29.64,2,0,12,0.13
2013-7-21,81.1,72.8,65.2,67.3,65.1,60.7,94,78,53,29.99,29.81,3,1,10,0.00
2013-7-22,82.2,72.0,64.2,70.2,66.9,62.9,97,85,63,30.01,29.90,5,1,12,0.00
2013-7-23,81.8,72.5,68.8,76.2,70.8,66.8,97,94,83,29.88,29.53,6,0,15,0.96
2013-7-24,84.9,75.1,67.7,75.5,69.3,58.4,98,83,62,29.92,29.58,3,0,13,0.00
2013-7-25,64.6,60.8,59.0,58.9,55.2,51.1,97,82,65,30.11,29.96,5,1,12,0.19
2013-7-26,70.3,64.7,60.0,66.7,63.2,59.1,97,95,88,30.06,29.92,3,1,13,0.32
2013-7-27,84.5,71.3,58.7,70.5,64.4,57.9,98,81,51,30.05,29.98,5,1,14,0.00
2013-7-28,78.8,69.7,63.6,71.4,66.5,61.7,96,90,78,30.02,29.98,5,1,13,0.01
2013-7-29,82.7,72.3,65.9,73.4,68.5,64.5,97,89,67,30.03,29.96,6,1,15,0.09
2013-7-30,81.1,70.8,60.8,66.8,63.4,59.5,97,80,52,30.09,30.02,2,0,12,0.01
2013-7-31,81.5,69.6,58.1,64.9,61.3,56.7,97,77,51,30.13,30.04,5,0,9,0.00
2013-8-1,80.1,68.9,59.0,68.0,63.0,57.9,98,83,61,30.04,29.88,6,1,15,0.00
2013-8-2,81.7,71.0,64.3,70.7,64.8,60.7,97,82,56,29.88,29.78,3,1,12,0.72
2013-8-3,78.7,69.8,62.8,68.4,64.3,61.9,98,84,65,29.86,29.77,5,1,12,0.00
2013-8-4,80.0,66.7,57.3,64.1,59.8,55.2,95,81,49,29.88,29.76,3,0,20,0.15
2013-8-5,75.1,62.0,53.0,57.3,52.6,47.8,97,75,40,30.04,29.88,6,1,16,0.00
2013-8-6,77.9,62.8,47.8,58.9,53.1,46.4,97,74,43,30.15,30.05,5,1,12,0.00
2013-8-7,79.6,66.9,52.4,63.7,56.8,51.1,98,73,48,30.19,30.10,8,1,16,0.00
2013-8-8,79.8,72.4,65.8,71.9,65.9,53.8,91,80,64,30.12,30.00,5,2,15,0.03
2013-8-9,74.9,72.9,71.6,73.7,70.9,68.9,97,93,89,30.02,29.74,7,2,18,1.05
2013-8-10,83.0,72.8,60.6,70.1,65.0,57.3,98,79,52,30.00,29.79,2,0,12,0.00
2013-8-11,79.2,65.3,52.4,62.5,57.2,51.0,97,78,51,30.07,29.99,3,0,12,0.01
2013-8-12,81.9,68.3,55.2,63.5,59.3,54.1,97,76,45,30.02,29.91,3,0,8,0.00
2013-8-13,74.6,67.7,61.9,69.3,64.3,59.9,96,89,73,29.92,29.69,3,0,8,0.01
2013-8-14,73.9,66.1,59.7,62.4,56.8,52.0,97,74,52,29.94,29.66,5,1,14,0.00
2013-8-15,77.5,63.4,51.0,57.2,53.7,49.3,96,73,44,30.11,29.96,2,0,12,0.00
2013-8-16,78.8,64.3,50.1,61.7,55.8,48.7,97,77,45,30.19,30.10,3,0,9,0.00
2013-8-17,79.5,65.7,52.8,62.6,57.4,51.7,97,77,52,30.28,30.19,3,1,12,0.00
2013-8-18,79.1,67.9,56.6,65.9,61.4,55.2,97,81,55,30.27,30.08,2,0,8,0.00
2013-8-19,80.7,69.8,57.2,67.7,62.3,55.8,97,78,59,30.07,29.94,2,0,9,0.00
2013-8-20,85.0,72.0,59.4,68.6,63.8,58.0,96,77,47,30.08,29.97,1,0,8,0.00
2013-8-21,88.7,72.9,58.3,70.6,64.2,57.2,97,77,45,30.13,30.02,2,0,8,0.00
2013-8-22,87.1,75.2,61.7,73.4,67.5,60.3,95,79,53,30.02,29.82,6,1,16,0.00
2013-8-23,77.9,71.0,58.4,69.1,62.3,52.6,94,75,53,30.11,29.82,6,1,14,0.00
2013-8-24,77.2,62.3,49.6,53.8,49.4,44.4,96,67,33,30.32,30.13,6,1,12,0.00
2013-8-25,82.0,65.3,47.0,61.0,53.2,45.6,97,69,40,30.36,30.18,3,0,12,0.00
2013-8-26,81.7,72.0,64.9,68.6,63.6,57.1,87,75,60,30.17,29.87,3,1,14,0.00
2013-8-27,84.3,74.3,64.8,70.8,67.1,63.0,94,79,57,29.89,29.83,5,1,12,0.00
2013-8-28,85.3,70.5,59.7,70.3,64.4,58.3,97,83,59,29.98,29.86,6,1,14,0.00
2013-8-29,65.5,64.2,61.4,63.9,61.1,57.8,95,90,83,30.08,29.96,6,1,13,0.00
2013-8-30,83.4,70.9,61.3,69.9,64.1,58.6,92,80,59,30.02,29.81,2,0,9,0.00
2013-8-31,79.9,74.0,69.2,75.1,71.0,66.8,97,90,81,29.83,29.77,5,1,13,0.33
2013-9-1,80.2,73.8,71.0,74.9,71.0,67.6,96,91,83,29.88,29.78,5,1,13,0.15
2013-9-2,78.2,74.0,71.7,75.8,71.9,70.0,97,93,85,29.86,29.71,3,1,10,0.44
2013-9-3,80.2,73.5,64.5,72.0,69.1,59.5,98,86,73,29.80,29.69,6,0,13,0.00
2013-9-4,80.1,67.9,56.9,62.6,58.8,55.4,96,75,48,29.91,29.80,3,0,12,0.00
2013-9-5,69.2,61.0,49.6,62.3,55.5,44.3,96,84,42,30.13,29.85,5,0,12,0.03
2013-9-6,69.4,55.5,41.9,51.5,46.0,40.8,97,74,44,30.24,30.09,2,0,9,0.00
2013-9-7,79.0,62.2,45.3,59.3,52.4,44.0,96,73,46,30.08,29.86,2,0,12,0.00
2013-9-8,72.6,63.0,48.8,64.0,54.6,43.9,96,76,46,30.08,29.75,7,1,20,0.04
2013-9-9,69.7,56.0,40.2,52.4,46.3,38.6,96,73,44,30.24,30.10,2,0,14,0.00
2013-9-10,73.6,65.6,53.8,70.2,62.1,50.5,95,88,80,30.15,30.02,5,1,17,0.10
2013-9-11,94.0,79.8,67.4,78.0,72.2,66.5,98,79,51,30.06,29.93,6,1,13,0.00
2013-9-12,87.4,77.1,67.2,76.2,70.3,65.7,96,81,61,29.96,29.69,9,2,20,0.89
2013-9-13,76.9,67.4,58.4,70.1,65.2,56.1,98,93,74,29.75,29.56,2,0,12,0.26
2013-9-14,67.1,60.0,51.2,58.2,55.0,49.5,94,84,67,30.05,29.76,2,0,10,0.00
2013-9-15,71.2,57.5,44.5,56.6,50.5,43.4,97,80,49,30.15,30.05,2,0,12,0.00
2013-9-16,67.1,57.9,48.9,57.7,51.7,40.8,93,80,66,30.24,30.01,3,0,17,0.00
2013-9-17,62.3,50.0,37.5,50.2,41.1,35.4,95,74,48,30.42,30.26,6,1,14,0.00
2013-9-18,72.0,54.2,37.6,53.4,45.3,36.3,97,76,40,30.32,30.13,2,0,7,0.00
2013-9-19,77.0,58.8,43.1,58.2,51.1,41.8,97,78,45,30.13,30.02,2,0,8,0.00
2013-9-20,79.3,60.1,45.4,61.7,53.2,44.3,98,81,51,30.09,30.00,5,0,10,0.00
2013-9-21,75.6,64.2,49.0,65.3,58.5,47.6,98,83,60,30.03,29.74,9,3,22,0.00
2013-9-22,71.0,64.7,53.3,66.9,59.1,48.6,96,83,63,29.82,29.61,9,2,21,0.54
2013-9-23,61.8,52.0,44.2,47.3,44.1,40.5,90,75,57,30.00,29.83,5,1,17,0.00
2013-9-24,63.2,50.9,39.1,49.1,43.5,37.5,95,77,51,29.99,29.82,5,1,13,0.00
2013-9-25,65.4,52.6,40.5,53.1,47.1,39.2,97,83,61,29.98,29.88,6,1,12,0.00
2013-9-26,65.8,56.4,50.8,51.9,50.0,48.0,95,80,57,30.13,29.99,5,0,9,0.00
2013-9-27,66.0,57.1,47.6,55.5,51.8,46.2,95,83,62,30.26,30.13,5,1,12,0.00
2013-9-28,72.5,55.8,43.2,57.3,50.0,42.1,97,83,55,30.33,30.26,5,1,10,0.00
2013-9-29,68.7,52.9,43.1,55.4,48.0,41.7,98,86,44,30.27,30.13,3,0,12,0.00
2013-9-30,67.7,53.4,42.9,54.1,48.9,41.7,97,86,54,30.13,29.98,5,0,8,0.00
2013-10-1,73.7,56.1,42.5,57.9,50.1,41.4,98,83,49,29.97,29.85,3,0,13,0.00
2013-10-2,78.3,62.8,48.1,63.6,56.3,47.0,97,81,55,29.94,29.82,3,0,12,0.00
2013-10-3,75.2,59.9,47.8,58.0,52.7,46.6,97,80,40,30.08,29.95,1,0,10,0.00
2013-10-4,61.7,55.9,47.8,60.0,54.5,46.4,97,95,93,30.09,30.04,1,0,4,0.22
2013-10-5,67.9,60.4,55.5,60.1,57.0,54.7,98,89,72,30.12,30.06,2,0,7,0.00
2013-10-6,58.5,56.2,53.8,56.9,55.0,52.5,97,96,93,30.23,30.12,2,0,9,0.44
2013-10-7,76.5,66.0,57.5,71.4,63.3,56.7,99,92,75,30.13,29.82,13,3,32,0.13
2013-10-8,64.4,55.2,43.3,56.7,47.5,40.8,93,77,50,30.36,29.91,6,1,15,0.00
2013-10-9,60.4,48.0,38.4,49.0,42.5,37.3,97,83,56,30.47,30.38,6,1,14,0.00
2013-10-10,62.1,50.0,38.0,53.6,46.5,37.0,98,88,71,30.37,30.20,3,0,8,0.00
2013-10-11,70.5,54.9,44.7,55.7,46.8,33.3,97,79,28,30.18,30.10,6,1,9,0.00
2013-10-12,59.2,53.4,43.9,55.9,50.7,42.6,98,90,83,30.40,30.16,3,1,13,0.00
2013-10-13,59.9,49.8,38.5,50.5,44.7,36.9,98,84,59,30.45,30.38,3,0,12,0.00
2013-10-14,64.3,47.0,32.2,49.8,41.0,30.9,98,83,38,30.41,30.26,5,0,10,0.00
2013-10-15,65.0,54.9,46.2,55.7,50.7,44.8,96,86,71,30.26,30.19,3,0,8,0.00
2013-10-16,62.1,53.6,46.2,55.4,51.0,45.1,98,91,77,30.18,29.92,2,0,6,0.00
2013-10-17,72.6,60.3,51.1,61.1,56.2,50.0,98,87,65,29.92,29.72,5,1,12,0.00
2013-10-18,67.2,59.9,47.5,60.7,52.0,42.6,96,77,48,29.90,29.62,6,1,16,0.02
2013-10-19,66.8,53.1,36.6,47.3,42.6,35.3,97,71,42,29.97,29.76,5,1,15,0.00
2013-10-20,61.3,52.3,37.8,51.1,41.6,34.8,95,70,42,30.01,29.69,5,1,15,0.00
2013-10-21,65.8,48.8,32.4,46.5,39.3,30.9,97,73,42,30.12,30.01,3,0,12,0.00
2013-10-22,67.3,53.3,41.7,52.8,46.0,39.2,97,78,52,29.99,29.70,6,1,18,0.00
2013-10-23,52.1,43.7,33.7,39.1,36.0,31.9,95,76,50,29.80,29.59,1,0,4,0.00
2013-10-24,52.8,44.1,33.3,37.6,31.5,26.9,93,64,39,29.87,29.64,3,1,15,0.00
2013-10-25,48.6,38.6,29.8,35.6,30.0,26.3,94,73,46,30.15,29.89,3,0,12,0.00
2013-10-26,55.1,40.9,24.8,36.1,28.9,23.1,94,67,34,30.15,29.89,7,2,22,0.00
2013-10-27,54.1,47.0,37.2,42.0,36.1,30.8,94,67,43,30.05,29.81,5,1,13,0.04
2013-10-28,57.8,42.6,29.0,36.1,31.2,25.8,93,67,41,30.35,30.06,5,1,14,0.00
2013-10-29,47.3,34.8,25.5,32.3,26.9,22.9,92,75,44,30.44,30.35,2,0,9,0.00
2013-10-30,47.8,36.4,28.4,41.3,33.8,26.6,94,90,78,30.36,30.20,0,0,3,0.05
2013-10-31,61.7,46.0,29.1,58.4,43.9,27.8,97,93,81,30.24,29.83,6,1,18,0.16
2013-11-1,70.3,64.5,56.1,63.1,58.2,52.3,95,80,68,29.75,29.45,13,4,31,0.02
2013-11-2,64.8,54.0,43.6,52.5,45.7,41.5,97,76,43,29.73,29.59,3,0,10,0.01
2013-11-3,50.1,41.1,30.6,47.0,32.4,18.4,92,72,47,30.40,29.73,5,1,14,0.01
2013-11-4,40.8,31.1,23.4,22.7,19.9,17.1,87,66,39,30.69,30.43,6,1,15,0.00
2013-11-5,48.9,35.2,22.2,33.8,28.1,19.7,92,77,48,30.71,30.52,5,0,8,0.00
2013-11-6,59.6,49.2,35.8,49.5,41.2,32.3,92,75,54,30.51,30.04,8,2,17,0.00
2013-11-7,66.9,54.1,41.0,58.1,50.2,36.2,94,87,69,30.03,29.68,7,2,20,0.21
2013-11-8,48.2,38.8,29.3,34.5,29.2,23.7,90,69,51,30.07,29.81,6,1,16,0.01
2013-11-9,44.5,38.5,29.4,31.0,25.6,23.1,78,60,43,30.20,30.06,5,1,15,0.00
2013-11-10,53.4,44.8,38.8,43.6,37.3,30.4,96,75,61,30.02,29.73,3,0,13,0.06
2013-11-11,50.3,44.7,39.0,33.1,29.5,26.7,70,56,40,30.09,29.84,6,1,14,0.01
2013-11-12,47.7,35.3,25.2,39.9,26.1,18.1,92,70,56,30.17,29.88,6,1,18,0.12
2013-11-13,29.7,25.8,25.4,17.3,17.3,17.1,71,70,59,30.19,30.18,5,0,12,0.00
2013-11-14,49.3,36.6,26.5,26.8,21.0,14.1,77,54,37,30.15,29.95,2,0,12,0.00
2013-11-15,60.2,41.7,24.7,32.6,24.4,17.7,86,57,19,30.10,30.01,6,1,13,0.00
2013-11-16,58.3,42.7,30.2,34.9,30.9,24.3,90,67,28,30.23,30.10,2,0,9,0.00
2013-11-17,55.7,43.5,28.5,52.1,40.3,26.6,97,89,74,30.24,29.81,7,1,12,0.02
2013-11-18,64.0,57.2,45.9,61.4,48.9,33.4,98,75,48,29.74,29.45,7,2,23,0.18
2013-11-19,47.5,39.0,31.6,32.1,23.5,17.7,62,54,41,30.17,29.57,8,3,24,0.00
2013-11-20,40.3,31.2,21.8,17.5,16.3,14.1,80,55,35,30.54,30.19,6,2,17,0.00
2013-11-21,45.5,31.5,18.3,28.8,21.1,15.4,90,68,38,30.55,30.32,2,0,12,0.00
2013-11-22,45.1,40.6,35.3,44.0,38.6,29.1,97,93,78,30.27,29.75,0,0,5,0.24
2013-11-23,44.7,39.1,30.2,43.9,27.9,15.1,97,66,38,29.82,29.69,6,2,15,0.00
2013-11-24,29.2,24.5,20.8,16.2,5.7,-1.5,71,45,30,30.07,29.69,12,5,32,0.00
2013-11-25,31.4,24.7,16.7,16.5,2.7,-7.0,55,40,20,30.27,30.09,5,2,18,0.00
2013-11-26,39.7,34.7,31.2,33.9,23.7,16.5,95,65,50,30.25,30.00,3,0,13,0.10
2013-11-27,62.1,51.0,35.9,60.7,49.6,34.5,97,95,86,29.94,29.13,12,4,29,1.36
2013-11-28,37.6,31.0,24.3,33.8,18.3,8.2,86,60,38,30.34,29.37,7,2,23,0.00
2013-11-29,31.2,25.1,19.3,18.6,12.9,7.3,87,61,38,30.65,30.35,7,1,16,0.00
2013-11-30,32.5,23.2,13.1,23.3,16.7,9.9,88,76,61,30.71,30.38,3,0,8,0.00
2013-12-1,35.0,33.5,32.2,29.6,28.6,26.8,88,82,79,30.34,30.19,1,0,8,0.00
2013-12-6,49.2,44.1,34.2,48.1,39.7,32.7,96,85,69,30.05,29.87,2,1,12,0.27
2013-12-7,38.2,32.5,23.8,33.6,28.3,21.3,97,85,63,30.36,30.01,5,1,14,0.09
2013-12-8,30.1,26.2,19.4,22.1,19.7,16.9,93,77,59,30.52,30.37,2,0,6,0.00
2013-12-9,38.6,32.4,25.5,37.6,30.4,18.9,97,93,68,30.42,29.80,2,0,9,0.40
2013-12-10,33.4,30.4,25.4,32.1,27.4,15.1,97,89,61,29.88,29.74,3,0,12,0.02
2013-12-11,31.8,25.8,21.3,19.9,18.0,15.9,85,72,55,30.12,29.92,3,1,16,0.00
2013-12-12,23.7,19.6,14.8,18.9,9.0,1.7,91,65,38,30.18,30.00,8,1,21,0.00
2013-12-13,29.4,21.3,14.9,20.2,12.1,4.9,82,67,54,30.30,29.90,5,1,15,0.00
2013-12-14,25.9,15.7,9.7,24.1,7.4,-2.9,93,70,54,30.52,30.13,5,1,10,0.00
2013-12-15,34.6,27.4,21.6,33.3,25.6,19.4,96,93,87,30.05,29.33,9,3,22,0.00
2013-12-16,26.9,22.6,14.4,22.1,14.1,8.2,90,70,49,30.10,29.65,1,0,8,0.00
2013-12-17,19.8,11.4,-2.2,17.8,7.3,-5.6,92,84,63,30.20,29.88,3,1,13,0.00
2013-12-18,32.6,23.9,16.1,22.5,18.8,13.1,90,81,63,29.98,29.78,5,1,16,0.00
2013-12-19,40.9,31.1,23.9,27.0,24.4,19.5,91,77,55,30.02,29.87,6,1,14,0.02
2013-12-20,51.0,37.9,26.8,37.2,31.6,24.7,94,79,58,30.03,29.81,6,1,12,0.07
2013-12-21,54.6,45.8,39.6,46.5,40.7,34.1,94,83,72,29.87,29.76,5,1,12,0.00
2013-12-22,44.3,37.5,33.0,43.0,36.5,32.2,97,96,94,29.94,29.75,6,1,14,0.00
2013-12-23,34.9,33.0,31.5,34.1,32.2,30.7,97,97,97,30.01,29.89,2,0,6,0.56
2013-12-24,34.7,31.3,26.0,33.9,24.8,16.5,97,77,59,30.10,29.96,5,1,12,0.00
2013-12-25,25.9,18.0,13.3,15.4,7.7,1.7,88,64,48,30.46,30.11,7,2,22,0.00
2013-12-26,33.8,24.0,14.7,30.9,20.9,11.9,94,88,80,30.41,30.00,1,0,6,0.00
2013-12-27,33.3,25.3,16.2,23.5,19.8,14.3,93,80,63,30.18,30.10,2,0,13,0.02
2013-12-28,44.5,30.5,21.0,29.0,24.5,18.2,90,79,53,30.12,29.90,3,0,12,0.01
2013-12-29,41.1,34.2,26.9,38.1,31.4,24.4,96,90,70,29.94,29.34,7,1,17,1.15
2013-12-30,41.3,32.4,18.1,35.6,24.8,7.3,97,75,49,30.08,29.44,5,2,15,0.01
2013-12-31,22.7,17.8,12.6,15.4,6.0,-0.9,83,60,47,30.08,29.95,3,0,13,0.00
2014-1-1,26.2,20.4,14.2,14.3,10.0,6.9,84,65,47,30.30,30.10,3,0,14,0.00
2014-1-2,19.9,11.3,1.1,15.3,7.9,-2.6,88,86,76,30.28,29.79,10,4,21,0.00